    Observer details:
    104 San Marcello Pistoiese.  Observers P. Bacci, M. Maestripieri.  Measurers
        P. Bacci, L. Tesi, G. Fagioli.  0.60-m reflector + CCD.
    160 Castelmartini.  Observers M. Jaeger, E. Prosperi, S. Prosperi, W. Vollmann.
        Measurer E. Prosperi.  0.35-m f/10 Schmidt-Cassegrain + CCD.
    474 Mount John Observatory, Lake Tekapo.  Observers A. C. Gilmore,
        P. M. Kilmartin.  Measurer P. M. Kilmartin.  1.0-m f/7.7 reflector + CCD.
    691 Steward Observatory, Kitt Peak.  Observer M. J. Brucker.  0.9-m f/3
        reflector + CCD.
    703 Catalina Sky Survey.  Observer J. A. Johnson.  Measurers E. J. Christensen,
        D. C. Fuls, A. R. Gibbs, A. D. Grauer, J. A. Johnson, R. A. Kowalski,
        S. M. Larson, G. J. Leonard, R. G. Matheny, R. L. Seaman, F. C. Shelly.
        0.68-m Schmidt + 10K CCD.
    850 Cordell-Lorenz Observatory, Sewanee.  Observer D. T. Durig.  0.3-m f/7.6
        Schmidt-Cassegrain + CCD.
    926 Tenagra II Observatory.  Observers M. Schwartz, P. R. Holvorcem.  Measurer
        M. Schwartz.  0.41-m f/3.75 astrograph + CCD, 0.81-m f/7 Ritchey-Chretien
        + CCD.
    C43 Hoyerswerda.  Observer P. Lindner.  0.30-m f/6.3 Schmidt-Cassegrain + CCD.
    E23 Arcadia.  Observer A. Hidas.  0.35-m f/1.9 reflector + CCD.
    G96 Mt. Lemmon Survey.  Observer R. A. Kowalski.  Measurers E. J. Christensen,
        D. C. Fuls, A. R. Gibbs, A. D. Grauer, J. A. Johnson, R. A. Kowalski,
        S. M. Larson, G. J. Leonard, R. G. Matheny, R. L. Seaman, F. C. Shelly.
        1.5-m reflector + 10K CCD.
    H01 Magdalena Ridge Observatory, Socorro.  Observers W. H. Ryan, E. V. Ryan.
        Measurer W. H. Ryan.  2.4-m f/8.9 reflector + CCD.
    H21 Astronomical Research Observatory, Westfield.  Observer R. Holmes.
        Measurers S. Foglia, L. Buzzi, T. Linder, R. Holmes.  0.76-m f/3.0
        astrograph + CCD.
    J95 Great Shefford.  Observer P. Birtwhistle.  0.40-m f/6.0 Schmidt-Cassegrain
        + CCD.
    K51 Osservatorio del Celado, Castello Tesino.  Observer G. Favero.  Measurer
        M. Campestrin.  0.80-m f/4 reflector + CCD.
    K88 GINOP-KHK, Piszkesteto.  Observer K. Sarneczky.  0.60-m Schmidt + CCD.
    P93 Space Tracking and Communications Center, JAXA.  Observers T. Fujiwara,
        A. Asami.  0.5-m f/2.0 reflector + CCD, 1.0-m f/3.0 reflector + CCD.
    
    Orbital elements:
    2017 UL44                                                Earth MOID = 0.0323 AU
    Epoch 2017 Sept. 4.0 TT = JDT 2458000.5                 MPC
    M 178.41339              (2000.0)            P               Q
    n   1.19940937     Peri.  138.04942     -0.94932484     -0.09509217
    a   0.8773195      Node    39.68188     -0.14360409     -0.71659060
    e   0.3031185      Incl.   27.97937     +0.27957146     -0.69098147
    P   0.82           H   23.8           G   0.15           U   7
    Residuals in seconds of arc
    171029 703  0.3+  0.3+    171029 C43  0.2+  0.0     171030 160  1.4+  0.4-
    171029 703  0.3+  0.1+    171029 C43  0.0   0.1-    171030 160  0.3+  0.5-
    171029 703  0.7-  0.0     171030 J95  0.1+  0.1+    171030 160  1.5+  1.2-
    171029 703  0.1+  0.6-    171030 J95  0.1+  0.1+    171030 160  0.3-  0.1-
    171029 H01  0.1+  0.0     171030 J95  0.2+  0.0     171030 K88  0.1-  0.2+
    171029 703  1.3+  1.7-    171030 926  0.3+  0.0     171030 K88  0.4-  0.2+
    171029 H01  0.0   0.0     171030 926  0.1+  0.1-    171030 K88  0.2-  0.3+
    171029 703  0.1+  0.2-    171030 926  0.1-  0.2-    171031 850  0.1+  0.5-
    171029 H01  0.1+  0.0     171030 926  0.4-  0.1-    171031 850  0.8+  0.5-
    171029 H01  0.1+  0.1-    171030 926  0.0   0.0     171031 850  0.8-  0.6+
    171029 691  0.1-  0.3-    171030 926  0.2+  0.2-    171031 850  0.3-  0.3+
    171029 691  0.5-  0.2+    171030 926  0.5-  0.4+    171031 850  1.3-  0.1+
    171029 691  0.3-  0.2+    171030 926  0.4-  0.3+    171031 H21  0.2-  0.0
    171029 474  0.2+  0.3-    171030 926  0.4-  0.2+    171031 H21  0.2-  0.0
    171029 474  0.1+  0.3-    171030 P93  0.1+  0.4+    171031 H21  0.1-  0.0
    171029 474  0.0   0.0     171030 P93  0.1+  0.1+    171031 G96  0.2+  0.4-
    171029 474  0.5-  0.1+    171030 P93  0.3+  0.2-    171031 G96  0.1+  0.1-
    171029 474  0.1-  0.1+    171030 P93  0.1+  0.7+    171031 G96  0.5+  0.5-
    171029 474  0.2-  0.1-    171030 K51  0.4-  0.2+    171031 G96  0.0   0.1-
    171029 474  0.3-  0.3-    171030 K51  0.4-  0.3+    171031 926  0.1-  0.0
    171029 474  0.3+  0.2+    171030 K51  0.5-  0.4+    171031 926  0.3-  0.1+
    171029 E23  0.7-  0.7+    171030 104  0.7-  0.0     171031 926  0.5-  0.2+
    171029 E23  0.4-  0.6+    171030 104  0.1-  0.1-    171031 P93  0.4+  0.5+
    171029 E23  0.1+  0.3+    171030 104  0.0   0.2+    171031 P93  0.7-  0.2+
    171029 C43  0.1-  0.1+    171030 104  0.1-  0.1+    171031 P93  0.3+  0.1+
    171029 C43  0.0   0.4+    171030 160  1.9+  1.0-    171031 P93  0.2+  0.3-
    
    Ephemeris:
    2017 UL44                a,e,i = 0.88, 0.30, 28                  q = 0.6114
    Date    TT    R. A. (2000) Decl.     Delta      r     Elong.  Phase     V
    2017 10 01    05 14 24.9 -23 23 43   0.3012  1.1207   105.7    59.3    23.6
    ...
    2017 10 16    05 07 08.0 -21 37 18   0.1720  1.0867   117.3    54.6    22.1
    ...
    2017 10 24    04 43 08.5 -17 35 09   0.1028  1.0623   129.0    46.7    20.8
    ...
    2017 10 30    03 43 25.2 -06 15 55   0.05500 1.0414   150.7    27.9    18.8
    2017 10 31    03 23 07.7 -02 06 38   0.04830 1.0376   157.6    21.3    18.3
    2017 11 01    02 56 53.2 +03 18 49   0.04246 1.0338   166.4    13.1    17.8
    ...
    2017 11 07    21 59 51.7 +39 06 26   0.04431 1.0098   113.9    63.8    19.3
    ...
    2017 11 15    19 20 53.4 +36 16 09   0.1041  0.9743    78.8    95.2    22.2
    ...
    2017 11 30    18 28 14.6 +31 35 43   0.2272  0.8983    61.0   106.2    24.3
    
    A. U. Tomatic                (C) Copyright 2017 MPC           M.P.E.C. 2017-U306
    

    Read MPEC 2017-U305 Read MPEC 2017-U307


    MPEC number:

    Enter an MPEC number in one of the following forms:

    • 1997-B01 (the full form)
    • J97B01 (the packed version of the full form)
    • B01 (the abbreviated form)